Location: Newark
(32.8014°N, 52.8711°E)
Time: 14:36:55
(UTC+00:00)

Envisat - Pass Details

Date: 25 January 2020
Orbit: 764 x 766 km, 98.1° (Epoch: 28 February)

Event Time Altitude Azimuth Distance (km) Brightness Sun altitude
Rises 15:44:37 0° 213° (SSW) 3,218 6.8 -23.3°
Reaches altitude 10° 15:48:18 10° 241° (WSW) 2,298 6.4 -24.0°
Maximum altitude 15:50:31 13° 268° (W) 2,110 6.3 -24.5°
Drops below altitude 10° 15:52:44 10° 294° (WNW) 2,304 6.2 -24.9°
Sets 15:56:28 0° 322° (NW) 3,235 6.6 -25.7°
